SCP
0 0 0 0 0 0 0 0 0 0 0 0 0 0 0 0 0 -0 -0 0 0 0 0 0 0 0 0 0 0 0 0 0 0 0 0 0 0 0 0 0 0 0 0 -0
0 0 0 0 0 0 0 0 0 0 0 0 0 0 0 0 0 -0 0 0 0 0 0 0 0 0 0 0 0 0 0 0 0 0 0 0 0 0 0 0 0 0 0 0
0 0 0 0 0 0 0 0 0 0 0 0 0 0 0 0 0 0 0 0 0 0 0 0 0 0 0 0 0 0 0 0 0 0 0 0 0 0 0 0 0 0 0 0
0 0 0 0 0 0 0 0 0 0 0 0 0 0 -0 -0 0 -0 -0 0 0 0 0 0 0 0 0 0 0 0 0 0 0 0 0 0 0 0 0 0 0 0 0 0
0 0 0 0 0 0 0 0 0 0 0 0 0 0 0 0 0 -0 -0 0 0 0 0 0 0 0 0 0 0 0 0 0 0 0 0 0 0 0 0 0 0 0 0 0
0 0 0 0 0 0 0 0 0 0 0 0 0 0 -0 -0 -0 -0 -0 0 0 0 0 0 0 0 0 0 0 0 0 0 0 0 0 0 0 0 0 0 0 0 0 0
0 0 0 0 0 0 0 0 0 0 0 0 0 0 -0 -0 -0 -0 -0 0 0 0 0 0 0 0 0 0 0 0 0 0 0 0 0 0 0 0 0 0 0 0 0 0
0 0 0 0 0 0 0 0 0 0 0 0 0 0 0 -0 -0 -0 -0 -0 -0 0 0 0 0 0 0 0 0 0 0 0 0 0 0 0 0 0 0 0 0 0 0 0
0 0 0 0 0 0 0 0 0 0 0 0 0 0 0 -0 -0 -0 -0 -0 0 -0 0 0 0 0 0 0 0 0 0 0 0 0 0 0 0 0 0 0 0 0 0 0
0 0 0 0 0 0 0 0 0 0 0 0 0 0 0 -0 -0 -0 -0 -0 -0 -0 0 0 0 0 0 0 0 0 0 0 0 0 0 0 0 0 0 0 0 0 0 0
0 0 0 0 0 0 0 0 0 0 0 0 0 0 0 0 -0 -0 -0 -0 -0 -0 0 0 0 0 0 0 0 0 0 0 0 0 0 0 0 0 0 0 0 0 0 0
0 0 0 0 0 0 0 0 0 0 0 0 0 0 0 0 0 -0 -0 -0 -0 -0 0 0 0 0 0 0 0 0 0 0 0 0 0 0 0 0 0 0 0 0 0 0
0 0 0 0 0 0 0 0 0 0 0 0 0 0 0 0 0 -0 -0 -0 -0 -0 -0 -0 0 0 0 0 0 0 0 0 0 0 0 0 0 0 0 0 0 0 0 0
0 0 0 0 0 0 0 0 0 0 0 0 0 0 -0 0 0 -0 -0 -0 -0 -0 -0 -0 0 0 0 0 0 0 0 0 0 0 0 0 0 0 0 0 0 0 0 0
0 0 0 0 0 0 0 0 0 0 0 0 0 0 -0 0 0 0 -0 -0 -0 -0 -0 -0 -0 0 0 0 0 0 0 0 0 0 0 0 0 0 0 0 0 0 0 0
0 0 0 0 0 0 0 0 0 0 0 0 0 0 -0 0 0 0 0 -0 -0 -0 -0 -0 -0 0 0 0 0 0 0 0 0 0 0 0 0 0 0 0 0 0 0 0
0 0 0 0 0 0 0 0 0 0 0 0 0 0 -0 0 0 0 -0 -0 -0 -0 -0 -0 -0 -0 0 0 0 0 0 0 0 0 0 0 0 0 0 0 0 0 0 0
0 0 0 0 0 0 0 0 0 0 0 0 0 0 0 0 0 0 -0 -0 -0 -0 -0 -0 -0 -0 0 0 0 0 0 0 0 0 0 0 0 0 0 0 0 0 0 0
0 0 0 0 0 0 0 0 0 0 0 0 0 0 0 0 0 0 0 -0 -0 -0 -0 -0 -0 -0 -0 0 0 0 0 0 0 0 0 0 0 0 0 0 0 0 0 0
0 0 0 0 0 0 0 0 0 0 0 0 0 0 0 0 0 0 0 -0 0 0 -0 -0 -0 -0 -0 0 0 0 0 0 0 0 0 0 0 0 0 0 0 0 0 0
0 0 0 0 0 0 0 0 0 0 0 0 0 0 0 0 0 0 -0 -0 0 -0 0 -0 -0 0 0 0 0 0 0 0 0 0 0 0 0 0 0 0 0 0 0 0
0 0 0 0 0 0 0 0 0 0 0 0 0 0 0 0 0 0 0 -0 0 -0 0 0 0 0 0 0 0 0 0 0 0 0 0 0 0 0 0 0 0 0 0 0
0 0 0 0 0 0 0 0 0 0 0 0 0 0 0 0 -0 -0 -0 -0 -0 0 0 0 0 0 0 0 0 0 0 0 0 0 0 0 0 0 0 0 0 0 0 0
0 0 0 0 0 0 0 0 0 0 0 0 0 0 0 0 -0 -0 -0 -0 -0 0 0 0 0 0 0 0 0 0 0 0 0 0 0 0 0 0 0 0 0 0 0 0
0 0 0 0 0 0 0 0 0 0 0 0 0 0 0 0 -0 -0 -0 -0 -0 0 0 0 0 0 0 0 0 0 0 0 0 0 0 0 0 0 0 0 0 0 0 0
0 0 0 0 0 0 0 0 0 0 0 0 0 0 0 -0 -0 -0 -0 -0 -0 0 0 0 0 0 0 0 0 0 0 0 0 0 0 0 0 0 0 0 0 0 0 0
0 0 0 0 0 0 0 0 0 0 0 0 0 0 0 -0 -0 -0 -0 -0 -0 -0 0 0 0 0 0 0 0 0 0 0 0 0 0 0 0 0 0 0 0 0 0 0
Wind_Speed_500mb
8 7 1 3 3 4 4 13 9 30 40 41 51 74 84 92 96 101 107 110 109 108 116 119 123 125 126 121 111 104 96 87 84 76 80 84 86 81 67 29 14 26 35 37
5 5 4 4 4 7 8 16 22 29 34 55 70 75 84 86 88 99 101 109 111 112 115 118 124 126 125 114 112 100 92 84 74 77 84 85 90 86 73 50 26 7 12 25
4 1 4 6 2 6 17 21 20 25 38 64 63 75 81 80 93 97 100 105 106 110 116 119 122 121 117 114 109 99 89 84 78 75 78 85 86 85 86 80 59 30 12 3
2 7 5 9 1 12 21 25 9 19 43 62 65 78 71 67 89 96 100 104 106 109 117 120 120 116 111 113 104 95 90 84 78 79 75 76 80 83 88 82 84 91 44 15
3 6 4 7 7 8 12 15 4 28 51 60 70 71 50 79 88 89 93 94 100 101 107 110 113 106 106 109 98 96 95 82 74 75 75 80 87 88 89 90 96 95 92 65
2 5 4 8 5 5 6 4 20 40 48 56 64 34 53 100 96 89 90 88 96 100 103 106 104 97 99 98 93 93 90 82 75 72 72 76 80 84 87 97 102 103 98 78
1 4 6 5 0 3 7 13 39 38 43 50 46 52 79 83 85 82 86 89 93 92 97 100 94 91 93 87 82 74 79 81 82 80 75 72 73 77 82 92 100 102 104 101
3 5 4 12 5 5 9 25 31 34 40 51 57 65 70 77 79 82 89 88 92 90 92 92 86 88 89 84 71 62 63 70 75 73 75 77 78 80 81 82 87 92 96 104
10 6 12 8 4 8 8 22 26 33 42 48 56 61 68 74 76 78 83 81 85 85 86 84 81 81 81 78 69 60 61 61 62 66 70 67 73 69 69 65 73 80 83 82
3 8 7 3 4 8 15 18 23 29 37 44 53 57 63 67 71 75 83 83 86 83 82 83 77 75 74 72 67 58 54 53 51 59 70 79 75 78 79 73 69 64 69 70
7 8 3 10 4 6 12 17 22 29 36 40 47 54 59 62 65 72 75 79 81 76 76 76 73 71 71 68 65 58 53 51 48 47 51 61 78 78 77 74 68 65 65 60
1 21 8 12 4 8 9 17 26 35 41 41 43 51 55 60 58 66 71 73 77 64 69 70 69 67 65 63 63 60 57 54 53 47 44 45 49 63 74 71 72 72 70 70
12 19 11 6 1 6 10 18 25 28 33 44 48 52 55 57 59 64 63 65 69 59 63 64 64 59 57 57 56 55 54 51 53 54 52 52 54 55 56 67 72 74 74 73
21 17 8 3 4 2 11 18 24 28 30 37 46 54 57 59 62 63 63 61 57 52 56 58 56 52 52 51 50 48 48 50 51 52 52 54 57 58 59 60 64 70 70 70
23 13 8 7 7 5 12 18 26 31 39 44 50 56 60 61 62 61 60 61 56 46 50 54 49 47 47 47 46 44 44 45 47 49 51 55 56 57 58 60 61 58 63 68
28 15 10 13 7 4 10 18 25 32 39 45 52 58 60 58 59 60 61 61 60 49 50 50 46 45 42 41 39 37 38 38 41 44 48 51 55 56 56 58 58 58 59 57
28 18 17 12 7 3 10 19 26 33 39 44 51 57 59 57 61 67 66 59 52 37 41 45 41 38 35 33 33 32 33 33 36 40 45 47 52 54 55 57 57 57 56 58
19 17 19 13 7 2 9 16 23 31 38 44 49 54 57 57 62 65 65 57 56 39 30 39 33 31 28 27 27 26 27 28 32 37 41 42 49 50 52 56 54 54 53 58
20 21 17 10 5 3 11 16 22 29 36 43 49 53 53 51 62 63 60 58 59 53 35 36 30 25 24 21 22 21 23 24 28 32 37 39 43 45 49 51 50 48 49 55
26 20 14 8 1 7 12 16 21 28 35 41 46 50 51 49 62 65 61 56 53 50 41 27 27 21 20 16 16 16 18 20 24 28 32 35 38 40 43 45 46 44 48 53
26 20 13 7 3 6 11 16 22 28 33 39 45 49 49 48 58 65 69 64 56 51 42 21 19 19 18 11 9 11 14 17 21 24 28 32 33 34 35 40 41 41 43 46
28 20 12 6 3 4 9 14 20 26 33 37 42 46 48 45 56 66 59 56 55 50 44 32 19 16 13 7 3 7 11 15 19 22 25 29 30 29 29 33 35 36 37 40
29 22 14 8 4 5 9 14 18 24 31 36 41 46 47 44 52 67 73 62 53 46 40 33 26 14 7 7 7 4 10 14 18 21 23 26 27 27 26 27 30 32 32 34
28 21 14 10 5 6 9 12 17 23 27 31 36 41 46 44 42 58 60 55 50 41 37 33 27 13 4 9 12 5 10 15 17 20 22 23 25 26 26 24 24 26 27 28
26 20 15 10 7 6 8 10 15 19 23 28 31 37 42 43 41 56 61 57 49 40 35 31 26 16 2 13 16 11 13 16 18 20 23 22 22 24 24 24 22 23 23 24
23 18 14 12 10 8 8 10 13 18 23 26 31 36 40 42 36 46 58 57 50 40 32 30 27 18 4 15 18 16 16 18 19 21 23 24 21 22 22 22 21 21 21 21
24 20 16 12 10 9 9 9 11 16 21 26 31 36 39 41 37 37 52 57 54 43 32 27 24 17 7 11 17 15 16 17 19 20 23 24 24 22 22 21 21 20 20 20
Wind_Direction_500mb
73 68 112 10 199 238 270 322 284 317 315 326 336 330 329 333 336 337 336 337 338 339 337 336 338 340 344 350 358 0 1 360 2 6 14 17 13 10 359 318 289 252 246 248
105 339 254 237 211 286 280 300 303 318 306 343 326 328 331 336 335 337 337 336 338 338 337 338 340 343 351 1 2 360 5 11 12 22 25 26 25 35 43 52 61 31 251 234
93 111 154 203 337 314 303 304 328 325 325 325 330 331 334 327 341 339 338 337 338 337 337 339 343 349 358 3 5 6 12 17 22 29 34 34 36 42 51 52 48 33 26 225
99 182 229 98 152 295 297 306 329 313 326 326 328 325 325 342 340 338 339 339 338 338 339 347 354 3 9 9 10 12 20 23 28 33 39 45 48 46 44 49 53 52 56 88
296 289 351 196 194 304 332 320 19 324 328 329 328 325 331 344 342 338 339 339 337 339 344 352 3 11 14 15 14 18 22 27 30 36 43 48 48 50 57 59 53 57 70 77
134 290 292 87 135 278 274 232 345 338 330 329 335 336 329 336 336 337 340 341 342 345 356 2 10 16 19 19 19 21 26 33 39 42 46 51 55 57 63 65 66 65 60 65
112 274 254 153 278 140 299 343 334 330 329 325 326 321 316 328 333 339 341 343 347 353 359 4 12 18 20 21 21 22 38 42 46 50 51 54 58 64 70 73 77 74 73 69
135 241 274 140 161 291 332 319 328 325 325 323 322 325 330 332 335 341 342 344 351 354 3 10 17 20 20 19 17 20 37 43 45 44 49 52 55 60 65 68 72 77 79 77
223 18 99 145 257 271 286 317 322 322 325 326 324 332 333 335 336 342 345 345 352 356 5 14 20 23 18 15 14 15 24 31 36 44 45 47 52 50 51 52 57 60 70 76
262 155 198 184 230 221 296 310 320 327 326 329 328 335 335 338 337 342 347 347 352 357 8 12 21 22 20 16 15 15 19 28 31 38 43 45 47 50 57 55 54 57 59 60
242 184 150 160 203 298 316 331 333 339 337 339 334 338 338 339 339 342 344 356 354 357 7 13 21 21 20 18 18 18 22 32 38 37 43 49 51 50 52 52 60 62 64 67
122 150 143 164 252 323 343 347 347 347 345 349 344 340 341 340 343 343 346 356 355 2 9 15 20 22 20 21 23 26 30 40 46 46 47 52 54 57 57 58 62 69 73 75
160 151 142 161 280 352 1 351 350 350 349 347 347 348 345 344 345 345 348 355 359 3 8 17 20 21 20 23 27 30 35 46 52 57 59 61 64 64 63 64 68 71 76 80
153 153 148 155 156 14 3 353 352 356 351 350 348 352 352 350 350 349 349 352 7 6 12 19 20 23 19 26 29 34 40 48 56 61 64 67 68 70 72 71 68 71 78 82
171 170 161 166 133 27 2 355 357 360 357 356 359 356 355 353 353 349 348 357 9 8 14 21 21 23 19 27 31 35 41 49 59 65 68 73 75 76 77 76 76 76 82 86
176 178 175 156 140 40 3 355 358 358 359 357 358 357 357 353 354 350 353 4 9 8 11 19 22 21 21 23 34 40 45 53 62 70 74 78 82 82 82 82 84 86 88 88
169 183 177 168 140 52 1 358 356 357 357 357 358 355 355 356 355 355 359 2 9 12 14 18 19 18 19 25 32 42 47 58 67 74 79 83 87 87 87 88 89 91 94 97
185 178 169 164 144 60 353 352 356 358 357 357 357 356 356 358 357 353 356 358 9 20 21 23 21 14 19 27 32 44 51 65 74 81 84 88 90 92 94 94 95 97 99 97
171 169 169 168 165 352 356 359 357 357 359 357 358 359 359 358 359 356 354 6 7 9 18 19 19 12 25 26 34 49 59 71 82 87 90 92 94 97 98 98 99 101 100 96
165 169 175 172 221 341 352 354 357 358 359 358 358 359 360 360 2 360 358 3 5 2 1 1 13 10 29 38 35 56 71 81 91 95 97 98 99 99 100 102 103 103 101 100
168 171 174 181 259 334 352 353 358 356 1 360 359 1 1 0 1 3 1 1 3 6 4 0 353 10 28 45 33 58 87 93 102 106 107 104 103 104 107 107 107 106 104 103
169 174 183 199 245 329 350 357 356 352 358 360 360 0 2 1 360 6 6 358 359 3 360 4 4 10 15 81 77 67 103 107 113 117 117 113 111 110 111 112 111 110 108 106
174 177 185 204 263 322 349 358 352 355 359 359 358 359 3 4 2 3 360 4 2 1 358 2 6 359 3 127 155 93 124 123 125 126 126 123 121 119 116 116 117 115 113 111
177 180 187 210 251 320 340 345 350 358 357 358 360 359 1 3 8 4 4 4 5 3 1 1 1 3 12 155 163 149 147 138 136 135 134 133 130 127 125 123 122 120 119 116
176 178 188 208 226 275 309 338 352 353 353 358 0 3 6 4 0 5 4 8 9 7 5 5 4 7 60 158 161 179 159 149 146 144 142 142 141 137 134 131 131 128 126 124
183 184 192 210 231 259 295 328 345 348 355 358 1 5 7 5 3 5 7 11 13 13 10 8 8 10 84 148 163 172 164 158 155 153 151 148 150 147 144 140 139 137 135 134
190 189 197 210 233 254 284 313 332 341 351 355 2 4 5 5 3 7 7 15 15 17 16 14 15 18 77 132 151 164 168 165 162 162 160 157 155 158 156 151 148 146 144 144
Wind_Speed_850mb
8 7 1 3 3 4 4 13 9 30 40 41 51 74 84 92 96 101 107 110 109 108 116 119 123 125 126 121 111 104 96 87 84 76 80 84 86 81 67 29 14 26 35 37
5 5 4 4 4 7 8 16 22 29 34 55 70 75 84 86 88 99 101 109 111 112 115 118 124 126 125 114 112 100 92 84 74 77 84 85 90 86 73 50 26 7 12 25
4 1 4 6 2 6 17 21 20 25 38 64 63 75 81 80 93 97 100 105 106 110 116 119 122 121 117 114 109 99 89 84 78 75 78 85 86 85 86 80 59 30 12 3
2 7 5 9 1 12 21 25 9 19 43 62 65 78 71 67 89 96 100 104 106 109 117 120 120 116 111 113 104 95 90 84 78 79 75 76 80 83 88 82 84 91 44 15
3 6 4 7 7 8 12 15 4 28 51 60 70 71 50 79 88 89 93 94 100 101 107 110 113 106 106 109 98 96 95 82 74 75 75 80 87 88 89 90 96 95 92 65
2 5 4 8 5 5 6 4 20 40 48 56 64 34 53 100 96 89 90 88 96 100 103 106 104 97 99 98 93 93 90 82 75 72 72 76 80 84 87 97 102 103 98 78
1 4 6 5 0 3 7 13 39 38 43 50 46 52 79 83 85 82 86 89 93 92 97 100 94 91 93 87 82 74 79 81 82 80 75 72 73 77 82 92 100 102 104 101
3 5 4 12 5 5 9 25 31 34 40 51 57 65 70 77 79 82 89 88 92 90 92 92 86 88 89 84 71 62 63 70 75 73 75 77 78 80 81 82 87 92 96 104
10 6 12 8 4 8 8 22 26 33 42 48 56 61 68 74 76 78 83 81 85 85 86 84 81 81 81 78 69 60 61 61 62 66 70 67 73 69 69 65 73 80 83 82
3 8 7 3 4 8 15 18 23 29 37 44 53 57 63 67 71 75 83 83 86 83 82 83 77 75 74 72 67 58 54 53 51 59 70 79 75 78 79 73 69 64 69 70
7 8 3 10 4 6 12 17 22 29 36 40 47 54 59 62 65 72 75 79 81 76 76 76 73 71 71 68 65 58 53 51 48 47 51 61 78 78 77 74 68 65 65 60
1 21 8 12 4 8 9 17 26 35 41 41 43 51 55 60 58 66 71 73 77 64 69 70 69 67 65 63 63 60 57 54 53 47 44 45 49 63 74 71 72 72 70 70
12 19 11 6 1 6 10 18 25 28 33 44 48 52 55 57 59 64 63 65 69 59 63 64 64 59 57 57 56 55 54 51 53 54 52 52 54 55 56 67 72 74 74 73
21 17 8 3 4 2 11 18 24 28 30 37 46 54 57 59 62 63 63 61 57 52 56 58 56 52 52 51 50 48 48 50 51 52 52 54 57 58 59 60 64 70 70 70
23 13 8 7 7 5 12 18 26 31 39 44 50 56 60 61 62 61 60 61 56 46 50 54 49 47 47 47 46 44 44 45 47 49 51 55 56 57 58 60 61 58 63 68
28 15 10 13 7 4 10 18 25 32 39 45 52 58 60 58 59 60 61 61 60 49 50 50 46 45 42 41 39 37 38 38 41 44 48 51 55 56 56 58 58 58 59 57
28 18 17 12 7 3 10 19 26 33 39 44 51 57 59 57 61 67 66 59 52 37 41 45 41 38 35 33 33 32 33 33 36 40 45 47 52 54 55 57 57 57 56 58
19 17 19 13 7 2 9 16 23 31 38 44 49 54 57 57 62 65 65 57 56 39 30 39 33 31 28 27 27 26 27 28 32 37 41 42 49 50 52 56 54 54 53 58
20 21 17 10 5 3 11 16 22 29 36 43 49 53 53 51 62 63 60 58 59 53 35 36 30 25 24 21 22 21 23 24 28 32 37 39 43 45 49 51 50 48 49 55
26 20 14 8 1 7 12 16 21 28 35 41 46 50 51 49 62 65 61 56 53 50 41 27 27 21 20 16 16 16 18 20 24 28 32 35 38 40 43 45 46 44 48 53
26 20 13 7 3 6 11 16 22 28 33 39 45 49 49 48 58 65 69 64 56 51 42 21 19 19 18 11 9 11 14 17 21 24 28 32 33 34 35 40 41 41 43 46
28 20 12 6 3 4 9 14 20 26 33 37 42 46 48 45 56 66 59 56 55 50 44 32 19 16 13 7 3 7 11 15 19 22 25 29 30 29 29 33 35 36 37 40
29 22 14 8 4 5 9 14 18 24 31 36 41 46 47 44 52 67 73 62 53 46 40 33 26 14 7 7 7 4 10 14 18 21 23 26 27 27 26 27 30 32 32 34
28 21 14 10 5 6 9 12 17 23 27 31 36 41 46 44 42 58 60 55 50 41 37 33 27 13 4 9 12 5 10 15 17 20 22 23 25 26 26 24 24 26 27 28
26 20 15 10 7 6 8 10 15 19 23 28 31 37 42 43 41 56 61 57 49 40 35 31 26 16 2 13 16 11 13 16 18 20 23 22 22 24 24 24 22 23 23 24
23 18 14 12 10 8 8 10 13 18 23 26 31 36 40 42 36 46 58 57 50 40 32 30 27 18 4 15 18 16 16 18 19 21 23 24 21 22 22 22 21 21 21 21
24 20 16 12 10 9 9 9 11 16 21 26 31 36 39 41 37 37 52 57 54 43 32 27 24 17 7 11 17 15 16 17 19 20 23 24 24 22 22 21 21 20 20 20
Wind_Direction_850mb
73 68 112 10 199 238 270 322 284 317 315 326 336 330 329 333 336 337 336 337 338 339 337 336 338 340 344 350 358 0 1 360 2 6 14 17 13 10 359 318 289 252 246 248
105 339 254 237 211 286 280 300 303 318 306 343 326 328 331 336 335 337 337 336 338 338 337 338 340 343 351 1 2 360 5 11 12 22 25 26 25 35 43 52 61 31 251 234
93 111 154 203 337 314 303 304 328 325 325 325 330 331 334 327 341 339 338 337 338 337 337 339 343 349 358 3 5 6 12 17 22 29 34 34 36 42 51 52 48 33 26 225
99 182 229 98 152 295 297 306 329 313 326 326 328 325 325 342 340 338 339 339 338 338 339 347 354 3 9 9 10 12 20 23 28 33 39 45 48 46 44 49 53 52 56 88
296 289 351 196 194 304 332 320 19 324 328 329 328 325 331 344 342 338 339 339 337 339 344 352 3 11 14 15 14 18 22 27 30 36 43 48 48 50 57 59 53 57 70 77
134 290 292 87 135 278 274 232 345 338 330 329 335 336 329 336 336 337 340 341 342 345 356 2 10 16 19 19 19 21 26 33 39 42 46 51 55 57 63 65 66 65 60 65
112 274 254 153 278 140 299 343 334 330 329 325 326 321 316 328 333 339 341 343 347 353 359 4 12 18 20 21 21 22 38 42 46 50 51 54 58 64 70 73 77 74 73 69
135 241 274 140 161 291 332 319 328 325 325 323 322 325 330 332 335 341 342 344 351 354 3 10 17 20 20 19 17 20 37 43 45 44 49 52 55 60 65 68 72 77 79 77
223 18 99 145 257 271 286 317 322 322 325 326 324 332 333 335 336 342 345 345 352 356 5 14 20 23 18 15 14 15 24 31 36 44 45 47 52 50 51 52 57 60 70 76
262 155 198 184 230 221 296 310 320 327 326 329 328 335 335 338 337 342 347 347 352 357 8 12 21 22 20 16 15 15 19 28 31 38 43 45 47 50 57 55 54 57 59 60
242 184 150 160 203 298 316 331 333 339 337 339 334 338 338 339 339 342 344 356 354 357 7 13 21 21 20 18 18 18 22 32 38 37 43 49 51 50 52 52 60 62 64 67
122 150 143 164 252 323 343 347 347 347 345 349 344 340 341 340 343 343 346 356 355 2 9 15 20 22 20 21 23 26 30 40 46 46 47 52 54 57 57 58 62 69 73 75
160 151 142 161 280 352 1 351 350 350 349 347 347 348 345 344 345 345 348 355 359 3 8 17 20 21 20 23 27 30 35 46 52 57 59 61 64 64 63 64 68 71 76 80
153 153 148 155 156 14 3 353 352 356 351 350 348 352 352 350 350 349 349 352 7 6 12 19 20 23 19 26 29 34 40 48 56 61 64 67 68 70 72 71 68 71 78 82
171 170 161 166 133 27 2 355 357 360 357 356 359 356 355 353 353 349 348 357 9 8 14 21 21 23 19 27 31 35 41 49 59 65 68 73 75 76 77 76 76 76 82 86
176 178 175 156 140 40 3 355 358 358 359 357 358 357 357 353 354 350 353 4 9 8 11 19 22 21 21 23 34 40 45 53 62 70 74 78 82 82 82 82 84 86 88 88
169 183 177 168 140 52 1 358 356 357 357 357 358 355 355 356 355 355 359 2 9 12 14 18 19 18 19 25 32 42 47 58 67 74 79 83 87 87 87 88 89 91 94 97
185 178 169 164 144 60 353 352 356 358 357 357 357 356 356 358 357 353 356 358 9 20 21 23 21 14 19 27 32 44 51 65 74 81 84 88 90 92 94 94 95 97 99 97
171 169 169 168 165 352 356 359 357 357 359 357 358 359 359 358 359 356 354 6 7 9 18 19 19 12 25 26 34 49 59 71 82 87 90 92 94 97 98 98 99 101 100 96
165 169 175 172 221 341 352 354 357 358 359 358 358 359 360 360 2 360 358 3 5 2 1 1 13 10 29 38 35 56 71 81 91 95 97 98 99 99 100 102 103 103 101 100
168 171 174 181 259 334 352 353 358 356 1 360 359 1 1 0 1 3 1 1 3 6 4 0 353 10 28 45 33 58 87 93 102 106 107 104 103 104 107 107 107 106 104 103
169 174 183 199 245 329 350 357 356 352 358 360 360 0 2 1 360 6 6 358 359 3 360 4 4 10 15 81 77 67 103 107 113 117 117 113 111 110 111 112 111 110 108 106
174 177 185 204 263 322 349 358 352 355 359 359 358 359 3 4 2 3 360 4 2 1 358 2 6 359 3 127 155 93 124 123 125 126 126 123 121 119 116 116 117 115 113 111
177 180 187 210 251 320 340 345 350 358 357 358 360 359 1 3 8 4 4 4 5 3 1 1 1 3 12 155 163 149 147 138 136 135 134 133 130 127 125 123 122 120 119 116
176 178 188 208 226 275 309 338 352 353 353 358 0 3 6 4 0 5 4 8 9 7 5 5 4 7 60 158 161 179 159 149 146 144 142 142 141 137 134 131 131 128 126 124
183 184 192 210 231 259 295 328 345 348 355 358 1 5 7 5 3 5 7 11 13 13 10 8 8 10 84 148 163 172 164 158 155 153 151 148 150 147 144 140 139 137 135 134
190 189 197 210 233 254 284 313 332 341 351 355 2 4 5 5 3 7 7 15 15 17 16 14 15 18 77 132 151 164 168 165 162 162 160 157 155 158 156 151 148 146 144 144